TimeCDT,TemperatureF,Dew PointF,Humidity,Sea Level PressureIn,VisibilityMPH,Wind Direction,Wind SpeedMPH,Gust SpeedMPH,PrecipitationIn,Events,Conditions,WindDirDegrees,DateUTC
12:15 AM,61.7,49.8,65,30.17,10.0,East,3.5,-,N/A,,Clear,100,2013-08-23 05:15:00
12:35 AM,61.0,50.0,67,30.17,10.0,Calm,Calm,-,N/A,,Clear,0,2013-08-23 05:35:00
12:55 AM,59.9,50.0,70,30.17,10.0,ENE,3.5,-,N/A,,Clear,70,2013-08-23 05:55:00
1:15 AM,59.0,50.0,72,30.17,10.0,Calm,Calm,-,N/A,,Clear,0,2013-08-23 06:15:00
1:35 AM,60.3,50.0,69,30.17,10.0,Calm,Calm,-,N/A,,Clear,0,2013-08-23 06:35:00
1:55 AM,58.8,49.8,72,30.17,10.0,Calm,Calm,-,N/A,,Clear,0,2013-08-23 06:55:00
2:15 AM,58.3,49.8,73,30.16,10.0,Calm,Calm,-,N/A,,Clear,0,2013-08-23 07:15:00
2:35 AM,57.4,49.8,76,30.16,10.0,Calm,Calm,-,N/A,,Clear,0,2013-08-23 07:35:00
2:55 AM,58.3,50.0,74,30.17,10.0,ESE,3.5,-,N/A,,Clear,120,2013-08-23 07:55:00
3:15 AM,57.7,49.8,75,30.17,10.0,East,4.6,-,N/A,,Clear,100,2013-08-23 08:15:00
3:35 AM,57.0,49.6,76,30.17,10.0,Calm,Calm,-,N/A,,Clear,0,2013-08-23 08:35:00
3:55 AM,57.2,50.0,77,30.17,10.0,Calm,Calm,-,N/A,,Clear,0,2013-08-23 08:55:00
4:15 AM,57.0,49.6,76,30.17,10.0,SE,3.5,-,N/A,,Clear,130,2013-08-23 09:15:00
4:35 AM,56.3,49.3,77,30.17,10.0,ESE,3.5,-,N/A,,Clear,120,2013-08-23 09:35:00
4:55 AM,54.7,49.1,81,30.17,10.0,ESE,4.6,-,N/A,,Clear,110,2013-08-23 09:55:00
5:15 AM,55.9,49.3,78,30.17,10.0,Calm,Calm,-,N/A,,Clear,0,2013-08-23 10:15:00
5:35 AM,54.9,49.1,81,30.18,10.0,Calm,Calm,-,N/A,,Clear,0,2013-08-23 10:35:00
5:55 AM,54.1,48.6,81,30.18,10.0,Calm,Calm,-,N/A,,Clear,0,2013-08-23 10:55:00
6:15 AM,55.4,49.3,80,30.19,10.0,Calm,Calm,-,N/A,,Clear,0,2013-08-23 11:15:00
6:35 AM,53.6,49.1,85,30.19,10.0,Calm,Calm,-,N/A,,Clear,0,2013-08-23 11:35:00
6:55 AM,55.0,50.4,84,30.19,10.0,ESE,3.5,-,N/A,,Clear,110,2013-08-23 11:55:00
7:15 AM,56.3,51.3,83,30.19,10.0,ESE,4.6,-,N/A,,Clear,110,2013-08-23 12:15:00
7:35 AM,58.1,52.0,80,30.19,10.0,East,4.6,-,N/A,,Clear,100,2013-08-23 12:35:00
7:55 AM,60.1,52.5,76,30.20,10.0,ESE,4.6,-,N/A,,Clear,110,2013-08-23 12:55:00
8:15 AM,62.1,53.2,73,30.19,10.0,ESE,5.8,-,N/A,,Clear,110,2013-08-23 13:15:00
8:35 AM,64.0,54.0,70,30.19,10.0,East,4.6,-,N/A,,Clear,90,2013-08-23 13:35:00
8:55 AM,66.2,54.1,65,30.19,10.0,ESE,4.6,-,N/A,,Clear,110,2013-08-23 13:55:00
9:15 AM,68.5,54.5,61,30.19,10.0,SE,5.8,-,N/A,,Clear,130,2013-08-23 14:15:00
9:35 AM,70.5,55.2,58,30.19,10.0,ESE,4.6,-,N/A,,Clear,110,2013-08-23 14:35:00
9:55 AM,72.3,54.7,54,30.18,10.0,East,8.1,-,N/A,,Clear,100,2013-08-23 14:55:00
10:15 AM,74.5,55.8,52,30.18,10.0,SE,5.8,-,N/A,,Clear,140,2013-08-23 15:15:00
10:35 AM,75.6,55.2,49,30.18,10.0,ESE,6.9,-,N/A,,Clear,110,2013-08-23 15:35:00
10:55 AM,77.2,56.1,48,30.18,10.0,SE,6.9,-,N/A,,Clear,140,2013-08-23 15:55:00
11:15 AM,77.5,55.8,47,30.18,10.0,SE,6.9,-,N/A,,Clear,140,2013-08-23 16:15:00
11:35 AM,78.3,55.9,46,30.17,10.0,SE,5.8,-,N/A,,Clear,130,2013-08-23 16:35:00
11:55 AM,79.9,55.8,43,30.16,10.0,Calm,Calm,-,N/A,,Clear,0,2013-08-23 16:55:00
12:15 PM,81.0,54.7,40,30.16,10.0,South,3.5,-,N/A,,Clear,190,2013-08-23 17:15:00
12:35 PM,81.9,54.0,38,30.15,10.0,ESE,4.6,-,N/A,,Clear,110,2013-08-23 17:35:00
12:55 PM,82.4,54.3,38,30.15,10.0,South,5.8,-,N/A,,Clear,190,2013-08-23 17:55:00
1:15 PM,83.3,55.2,38,30.14,10.0,ESE,8.1,-,N/A,,Clear,110,2013-08-23 18:15:00
1:35 PM,84.4,54.3,36,30.14,10.0,SSW,5.8,-,N/A,,Clear,200,2013-08-23 18:35:00
1:55 PM,84.6,55.4,37,30.13,10.0,ESE,6.9,-,N/A,,Clear,120,2013-08-23 18:55:00
2:15 PM,85.1,53.8,34,30.12,10.0,SSW,4.6,-,N/A,,Clear,210,2013-08-23 19:15:00
2:35 PM,86.0,55.0,35,30.12,10.0,ESE,4.6,-,N/A,,Clear,120,2013-08-23 19:35:00
2:55 PM,85.8,54.9,35,30.11,10.0,South,8.1,-,N/A,,Clear,170,2013-08-23 19:55:00
3:15 PM,86.0,55.9,36,30.11,10.0,SSE,8.1,18.4,N/A,,Clear,150,2013-08-23 20:15:00
3:35 PM,86.9,57.0,36,30.11,10.0,SSE,10.4,-,N/A,,Clear,150,2013-08-23 20:35:00
3:55 PM,86.2,55.9,36,30.10,10.0,SSE,10.4,-,N/A,,Clear,160,2013-08-23 20:55:00
4:15 PM,86.2,55.0,34,30.10,10.0,SE,9.2,-,N/A,,Clear,140,2013-08-23 21:15:00
4:35 PM,86.2,56.1,36,30.09,10.0,South,10.4,18.4,N/A,,Clear,170,2013-08-23 21:35:00
4:55 PM,86.7,56.8,36,30.09,10.0,SSE,9.2,-,N/A,,Clear,150,2013-08-23 21:55:00
5:15 PM,85.5,58.3,40,30.09,10.0,SSE,8.1,-,N/A,,Clear,160,2013-08-23 22:15:00
5:35 PM,85.6,60.6,43,30.09,10.0,South,9.2,-,N/A,,Clear,170,2013-08-23 22:35:00
5:55 PM,83.1,60.8,47,30.09,10.0,South,9.2,-,N/A,,Clear,170,2013-08-23 22:55:00
6:15 PM,82.6,60.3,47,30.09,10.0,South,8.1,-,N/A,,Clear,190,2013-08-23 23:15:00
6:35 PM,81.7,61.0,49,30.09,10.0,South,8.1,-,N/A,,Clear,180,2013-08-23 23:35:00
6:55 PM,81.9,61.5,50,30.08,10.0,South,8.1,-,N/A,,Clear,170,2013-08-23 23:55:00
7:15 PM,80.2,61.7,53,30.08,10.0,SSE,5.8,-,N/A,,Clear,150,2013-08-24 00:15:00
7:35 PM,78.8,61.9,56,30.08,10.0,SSE,8.1,-,N/A,,Clear,150,2013-08-24 00:35:00
7:55 PM,78.1,61.9,57,30.08,10.0,SSE,6.9,-,N/A,,Clear,150,2013-08-24 00:55:00
8:15 PM,77.2,61.9,59,30.07,10.0,SSE,5.8,-,N/A,,Clear,150,2013-08-24 01:15:00
8:35 PM,76.5,62.2,61,30.08,10.0,SSE,6.9,-,N/A,,Clear,150,2013-08-24 01:35:00
8:55 PM,76.3,63.0,63,30.09,10.0,SE,5.8,-,N/A,,Clear,140,2013-08-24 01:55:00
9:15 PM,75.2,63.9,68,30.10,10.0,SSE,5.8,-,N/A,,Clear,150,2013-08-24 02:15:00
9:35 PM,73.9,64.4,72,30.11,10.0,SSE,5.8,-,N/A,,Clear,160,2013-08-24 02:35:00
9:55 PM,73.4,64.6,74,30.10,10.0,SSE,5.8,-,N/A,,Clear,160,2013-08-24 02:55:00
10:15 PM,73.0,64.8,75,30.11,10.0,SSE,4.6,-,N/A,,Clear,160,2013-08-24 03:15:00
10:35 PM,72.5,64.8,77,30.10,10.0,SSE,4.6,-,N/A,,Clear,160,2013-08-24 03:35:00
10:55 PM,71.6,64.8,79,30.11,10.0,SSE,4.6,-,N/A,,Clear,160,2013-08-24 03:55:00
11:15 PM,71.2,64.8,80,30.11,10.0,SSE,4.6,-,N/A,,Clear,150,2013-08-24 04:15:00
11:35 PM,71.1,64.9,81,30.10,10.0,SSE,4.6,-,N/A,,Clear,150,2013-08-24 04:35:00
11:55 PM,71.2,64.9,80,30.11,10.0,SSE,3.5,-,N/A,,Clear,150,2013-08-24 04:55:00